Regional Weather Roundup
Issued by NWS Sioux Falls, SD

Home | Current Version | Previous Version | Text Only | Print | Product List | Glossary Off
Versions: 1 2 3 4 5 6 7 8 9 10 11 12 13 14 15 16 17 18 19 20 21 22 23 24 25 26 27 28 29 30 31 32 33 34 35 36 37 38 39 40 41 42 43 44 45 46 47 48 49 50

000
ASUS43 KFSD 181502
RWRFSD

WEATHER ROUNDUP FOR SE SOUTH DAKOTA/SW MINNESOTA/NW IOWA
NATIONAL WEATHER SERVICE SIOUX FALLS SD
1000 AM CDT FRI APR 18 2014

NOTE: "FAIR" INDICATES FEW OR NO CLOUDS BELOW 12,000 FEET WITH NO
SIGNIFICANT WEATHER AND OR OBSTRUCTIONS TO VISIBILITY.


SDZ038>040-050-052>070-181600-
SOUTHEAST SOUTH DAKOTA

CITY           SKY/WX    TMP DP  RH WIND       PRES   REMARKS
CHAMBERLAIN      N/A     53  36  52 S24       29.97F
HURON          MOSUNNY   47  30  51 SE20G29   30.07F
MADISON        FAIR      37  36  93 SE18G24   30.17F
MITCHELL       MOSUNNY   47  32  56 SE21      30.09F
SIOUX FALLS    CLOUDY    43  32  65 SE14      30.20F
WINNER         FAIR      55  37  50 S25G39    29.92R
YANKTON        MOSUNNY   48  32  53 SE15G22   30.17F
$$

MNZ071-072-080-081-089-090-097-098-181600-
SOUTHWEST MINNESOTA

CITY           SKY/WX    TMP DP  RH WIND       PRES   REMARKS
FAIRMONT       PTSUNNY   37  28  70 SE15      30.33F
JACKSON        CLOUDY    37  32  81 SE13      30.30S
LUVERNE        CLOUDY    41  32  70 SE16G23   30.24F
MARSHALL       CLOUDY    36  28  75 SE13      30.26F
MONTEVIDEO     PTSUNNY   36  30  80 S13       30.30F
PIPESTONE      CLOUDY    37  32  81 S16       30.21S
REDWOOD FALLS  PTSUNNY   38  31  76 SE13      30.31S
TRACY          CLOUDY    38  32  81 SE15      30.28S
WINDOM         CLOUDY    39  32  75 SE12      30.29S
WORTHINGTON    CLOUDY    39  28  65 SE16G23   30.27F
$$

IAZ001>003-012>014-020>022-031-032-NEZ013-014-SDZ071-181600-
NORTHWEST IOWA

CITY           SKY/WX    TMP DP  RH WIND       PRES   REMARKS
CHEROKEE       MOSUNNY   44  35  70 SE16      30.27F
DENISON        SUNNY     46  34  61 S9        30.27F
ESTHERVILLE    CLOUDY    39  32  76 SE14      30.30S
SIOUX CITY     MOSUNNY   47  33  58 SE14      30.24F
SPENCER        CLOUDY    43  33  68 SE13      30.29S
STORM LAKE     MOSUNNY   43  34  70 SE16G22   30.29S
$$

ABBREVIATIONS USED IN REMARKS
   TC - TEMPERATURE IN CELSIUS
  WCI - WIND CHILL INDEX
   HX - HEAT INDEX
  VSB - VISIBILITY




USA.gov is the U.S. government's official web portal to all federal, state and local government web resources and services.